Погода Алтай

Погода Алтай : погода сейчас, прогноз погоды и архив. Всё, что Вы хотите узнать о погоде Алтай!

Поиск расширенной информации на нашем сайте:

Полезная информация: Как будет упакован семенной картофель.
электрические самокаты Ростов-на-Дону

Другие новости

Новости СМИ2

Главная страница сайта

Новости сайта

02.10.2013

Напоминаем, что на нашем новом сайте вы можете получить высокодетализированные прогнозы погоды по пунктам России, СНГ и мира (включающие важные для авиации метеовеличины, такие как направление и скорость ветра, видимость, явления погоды, количество и форма облачности, нижняя и верхняя граница облачности), а также ознакомиться с разнообразными материалами по авиационной метеорологии и подборкой полезных ссылок на эту тему.

Сайт Метеоцентр.Азия посвящён разработке технологий оптимизации авиаметеорологического обслуживания, включая проектирование и перспективное создание нескольких автоматизированных авиаметеорологических систем:
- система выпуска высокодетальных прогностических карт явлений погоды для нижнего воздушного пространства по России и ближнему зарубежью;
- система верификации прогнозов TAF (выпускаемых синоптиками официальных АМСГ РФ и ближнего зарубежья) и AUTOTAF (выпускаемых сайтом Метеоцентр.Азия) - выявление ошибок, онлайн-сопоставление с фактической погодой METAR, автоматическое внесение коррективов в прогнозы при резком отклонении фактической погоды от прогноза, подсчёт оправдываемости прогнозов по элементам и в целом;
- система обработки, анализа и отображения авиаметеорологической информации для применения провайдерами метеорологической информации.

Рекомендуем: купить офис в бизнес центре хамовническая слобода

Погода Алтай - сегодня

Время (UTC), дата Ветер
(°,м/с) 
Видим.   Явления Облачность Т
(°С)
Тd
(°С)
f(%) Тe
(°С)
Pmin
(гПа)
dP
(гПа)
Po
(мм)
O2
(г/м3)
Тmin Tmax R s Состояние
почвы
03 23.02.17 220 (ЮЗ) 5{12}  20000 м    9/4 600 м кучево-дожд., средняя, верхняя 
[Cb calv|Ac trans|Ci sp]
+1.6 -2.1 76 -1  1005.3  0.9  751  301  +1.6      51  неравномерный
мокрый или
старый снег
100% 
06 23.02.17 220 (ЮЗ) 5{11}  н/о    н/о 
+1.8 -3 70 -1  1006.1  0.8  752  301  +1         
09 23.02.17 210 (ЮЗ) 5-10{12}  20000 м    8/0 средняя, верхняя 
[Ac trans|Ci sp]
+0.7 -4.8 67 -2  1007.1  0.9  752  303           
12 23.02.17 220 (ЮЗ) 4{10}  н/о    н/о 
+0.3 -5.2 67 -2  1008.2  1.1  753  304           
15 23.02.17 210 (ЮЗ) 20000 м    9/0 верхняя 
[Ci sp]
-1.3 -5.6 72 -4  1008.8  0.6  754  306    +2.1       
18 23.02.17 200 (Ю) 20000 м    ясно 
-3 -8 68 -5  1009.2  0.6  754  308           
21 23.02.17 200 (Ю) н/о    н/о 
-3.4 -10 60 -6  1009.3  0.1  754  309           
00 24.02.17 200 (Ю) 20000 м    8/8 600 м 
[Sc]
-4 -9.7 65 -6  1009  -0.3  754  309           
03 24.02.17 210 (ЮЗ) 20000 м    10/10 600 м 
[Sc]
-4.6 -9 71 -7  1010.1  1.1  755  310  -4.6      49  неравномерный
мокрый или
старый снег
100% 
06 24.02.17 220 (ЮЗ) н/о    н/о 
-3.7 -8.4 70 -6  1011.5  1.4  756  309  -5.3         
09 24.02.17 180 (Ю) 20000 м    10/10 600 м 
[Sc]
-3.3 -8.1 69 -4  1012.3  0.8  756  309           
12 24.02.17 190 (Ю) н/о    н/о 
-4.1 -7.7 76 -4  1013.6  1.3  757  311           
15 24.02.17 130 (ЮВ) 20000 м  {ливн. осадки}  10/10 600 м 
[Sc]
-4.3 -7.4 79 -4  1014.2  0.6  758  311    -3.2       
18 24.02.17 090 (В) 20000 м  {ливн. осадки}  10/10 600 м кучево-дожд. 
[Cb calv]
-4.5 -6.8 84 -4  1015.2  758  311           
21 24.02.17 050 (СВ) 20000 м    10/10 600 м кучево-дожд. 
[Cb calv]
-4.6 -6.9 84 -4  1015.9  0.6  759  312           
00 25.02.17 030 (СВ) 20000 м    ясно 
-7.3 -8.7 90 -7  1016.4  0.5  759  315           
03 25.02.17 060 (СВ) 20000 м    10/8 600 м верхняя 
[Sc|Ci sp]
-7.4 -8.6 91 -9  1016.8  0.4  759  315  -8.1      49  неравномерный
мокрый или
старый снег
100% 
06 25.02.17 100 (В) н/о    н/о 
-5.4 -7.6 84 -8  1016.6  -0.2  759  313           
09 25.02.17 070 (В) 20000 м    6/0 средняя, верхняя 
[Ac trans|Ci fib]
-3.1 -7 74 -4  1015.7  -0.8  759  310           
12 25.02.17 070 (В) н/о    н/о 
-4.5 -8.5 74 -7  1014.2  -0.8  758  311           
15 25.02.17 110 (В) 20000 м    3/0 средняя 
[Ac trans]
-5.7 -9.6 74 -7  1012.8  -1.3  757  312    -2.6       
18 25.02.17 130 (ЮВ) 20000 м    8/0 средняя 
[Ac trans]
-5.9 -10.3 71 -8  1011.1  -1.7  755  312           
21 25.02.17 140 (ЮВ) 20000 м    10/0 средняя 
[Ac und]
-6.1 -10.1 73 -9  1008.8  -2.3  754  312           
00 26.02.17 150 (ЮВ) 2000 м  снег  10/0 средняя 
[Ac As]
-7.1 -8.2 92 -11  1007.3  -1.5  752  312           
03 26.02.17 160 (Ю) 4000 м  слаб. снег  10/0 средняя 
[Ac As]
-6.4 -7.6 91 -10  1007.1  -0.2  752  311  -7.2    53  неравномерный
сухой снег
100% 
Время (UTC), дата Ветер
(°,м/с) 
Видим.   Явления Облачность Т
(°С)
Тd
(°С)
f(%) Тe
(°С)
Pmin
(гПа)
dP
(гПа)
Po
(мм)
O2
(г/м3)
Тmin Tmax R s Состояние
почвы

Для получения пояснительной информации подведите курсор к названию столбца.

ПОГОДА Алтай - архив

Всё, что Вы хотите узнать о погоде Алтай - удобно и подробно!

Выберите нужную дату (начиная с 1 января 2015* года) и нажмите кнопку "Найти".
Будут отображены архивные сводки погоды по пункту Алтай, начиная с указанной даты.


Отображать данные в формате CSV (для использования в таблицах Excel)


Внимание! Наш архив погоды предназначен исключительно для личного некоммерческого использования в познавательных целях. Если Вам необходимы официальные справки о состоянии погоды (для производственных, юридических, коммерческих и т.п. целей), обращайтесь в органы Росгидромета.

*Примечание: данная дата относится к архиву по метеостанциям СССР (Россия, СНГ, Балтия).
Архив по метеостанциям Зарубежной Европы и Азии (кроме Китая) хранится 10 дней, по другим регионам земного шара (Китай, Африка, Америка, Австралия, Океания) - 1 день.

Алтай - район местоположения метеостанции


Название, широта, долгота, высота метеостанции:
Алтай 60.3°ш. 68.9°д. 30 м над ур. моря [Российская Федерация]

Дополнительная информация

В oтличие oт бoльшинства пoгoдных сайтoв мы публикуем пoдрoбную метеoинфoрмацию в детальнoм прoфессиoнальнoм фoрмате.

Характеристики температуры и влажнoсти вoздуха измеряются на высoте 2 м в тени вдали oт зданий и деревьев.
Скoрoсть ветра измеряется на высoте 10 м (на урoвне рoста челoвека скoрoсть ветра ниже в 1.5-2 раза). Если метеoстанция нахoдится в гoрoде или в лесу, тo скoрoсть ветра занижена на 2-4 м/с пo сравнению с oткрытым местoм. Скoрoсть ветра над акватoриями крупных рек и oзёр, а также на вершинах хoлмoв на 2-5 м/с выше, чем в oбычных услoвиях.
Атмoсфернoе давление в разных тoчках местнoсти мoжет значительнo oтличаться oт давления на метеoстанции, в зависимoсти oт услoвий рельефа (при пoдъёме на 10 м давление пoнижается примернo на 1 мм рт.ст.).